Calcasieu Lake Weather Center

Moon Phase Calendar



Calcasieu Lake Water Level
Online Cameras

 


      

Current Conditions in Hackberry
2/29/2024 9:14:50 PM

55°F
Feels Like 53
Clouds
Humidity
59%
Pressure
30.18"
Wind
8.8 mph (ENE)
Dew Point
41°F
UV Index
0/10 (Low)
Visibility
6 mi

Hourly Forecast

Date & Time Thu, Feb 29
9:00 PM
Thu, Feb 29
10:00 PM
Thu, Feb 29
11:00 PM
Fri, Mar 1
12:00 AM
Fri, Mar 1
1:00 AM
Fri, Mar 1
2:00 AM
Fri, Mar 1
3:00 AM
Fri, Mar 1
4:00 AM
Fri, Mar 1
5:00 AM
Fri, Mar 1
6:00 AM
Fri, Mar 1
7:00 AM
Fri, Mar 1
8:00 AM
Fri, Mar 1
9:00 AM
Fri, Mar 1
10:00 AM
Fri, Mar 1
11:00 AM
Fri, Mar 1
12:00 PM
Fri, Mar 1
1:00 PM
Fri, Mar 1
2:00 PM
Fri, Mar 1
3:00 PM
Fri, Mar 1
4:00 PM
Fri, Mar 1
5:00 PM
Fri, Mar 1
6:00 PM
Fri, Mar 1
7:00 PM
Fri, Mar 1
8:00 PM
Fri, Mar 1
9:00 PM
Fri, Mar 1
10:00 PM
Fri, Mar 1
11:00 PM
Sat, Mar 2
12:00 AM
Sat, Mar 2
1:00 AM
Sat, Mar 2
2:00 AM
Sat, Mar 2
3:00 AM
Sat, Mar 2
4:00 AM
Sat, Mar 2
5:00 AM
Sat, Mar 2
6:00 AM
Sat, Mar 2
7:00 AM
Sat, Mar 2
8:00 AM
Sat, Mar 2
9:00 AM
Sat, Mar 2
10:00 AM
Sat, Mar 2
11:00 AM
Sat, Mar 2
12:00 PM
Sat, Mar 2
1:00 PM
Sat, Mar 2
2:00 PM
Sat, Mar 2
3:00 PM
Sat, Mar 2
4:00 PM
Sat, Mar 2
5:00 PM
Sat, Mar 2
6:00 PM
Sat, Mar 2
7:00 PM
Sat, Mar 2
8:00 PM
Condition
Clouds

Clouds

Clouds

Clouds

Rain

Rain

Rain

Rain

Rain

Rain

Rain

Rain

Rain

Rain

Rain

Clouds

Clouds

Clouds

Clouds

Clouds

Clouds

Clouds

Clouds

Clouds

Clouds

Clouds

Clouds

Clouds

Clouds

Clouds

Clouds

Clouds

Clouds

Clouds

Clouds

Clouds

Clouds

Clouds

Clouds

Clouds

Clouds

Clouds

Clouds

Clouds

Clouds

Clouds

Clouds

Clouds
Temperature 55°F54°F54°F54°F53°F53°F52°F52°F53°F53°F53°F53°F54°F55°F56°F57°F58°F60°F62°F63°F63°F61°F59°F58°F58°F57°F57°F57°F57°F57°F57°F57°F57°F58°F59°F61°F63°F66°F69°F72°F74°F76°F76°F76°F74°F68°F64°F63°F
Feels Like 53°F52°F52°F52°F51°F51°F51°F51°F52°F52°F52°F53°F53°F54°F55°F56°F57°F60°F62°F63°F63°F61°F59°F58°F58°F57°F57°F57°F57°F57°F57°F57°F57°F58°F59°F61°F64°F66°F69°F72°F74°F76°F76°F76°F74°F68°F64°F63°F
Cloudiness 100%100%100%100%100%100%100%100%100%100%100%100%100%100%100%100%100%99%97%92%90%88%95%98%98%96%97%91%35%37%38%38%42%49%84%82%77%76%75%73%39%29%23%19%19%23%26%22%
Visibility 6 mi6 mi6 mi6 mi6 mi6 mi6 mi6 mi5 mi5 mi6 mi6 mi6 mi6 mi6 mi6 mi6 mi6 mi6 mi6 mi6 mi6 mi6 mi6 mi6 mi6 mi6 mi6 mi6 mi6 mi6 mi6 mi6 mi6 mi6 mi6 mi6 mi6 mi6 mi6 mi6 mi6 mi6 mi6 mi6 mi6 mi6 mi6 mi
Precipitation 16%16%12%9%69%100%99%100%100%100%85%82%82%78%74%74%19%36%42%38%27%27%0%0%0%0%0%0%0%4%5%4%4%4%0%0%0%0%0%0%0%0%0%0%0%0%0%0%
Humidity 59%60%60%62%66%75%82%87%91%93%93%94%93%91%91%90%88%86%84%82%84%89%93%94%95%96%96%96%96%97%97%97%97%96%95%91%86%81%75%70%65%61%59%60%66%81%91%94%
Dew Point 41°F41°F41°F41°F42°F45°F47°F49°F50°F51°F51°F52°F52°F52°F53°F53°F54°F56°F57°F58°F58°F58°F57°F57°F56°F56°F56°F56°F56°F56°F56°F56°F56°F57°F57°F58°F59°F60°F61°F61°F61°F61°F61°F60°F61°F62°F61°F61°F
Pressure 30.18"30.18"30.18"30.15"30.15"30.12"30.09"30.09"30.09"30.09"30.12"30.12"30.12"30.15"30.12"30.12"30.09"30.09"30.06"30.06"30.06"30.06"30.06"30.09"30.09"30.09"30.09"30.09"30.09"30.06"30.06"30.06"30.06"30.09"30.09"30.12"30.12"30.12"30.09"30.06"30.03"30"30"30"30"30"30.03"30.03"
Wind Speed 8.8 mph6.6 mph7.2 mph7.4 mph7.8 mph7.9 mph9.1 mph8.9 mph8.3 mph8.2 mph8.2 mph7.8 mph8.4 mph9.2 mph9.1 mph7.8 mph8.2 mph7.9 mph8.1 mph7.1 mph7.2 mph7.4 mph7.3 mph7 mph6 mph5.6 mph5.2 mph4.9 mph4.7 mph4.5 mph4 mph4.2 mph4.3 mph4.1 mph4.4 mph5 mph5.8 mph5.4 mph4.5 mph3.7 mph2.5 mph1.9 mph2.1 mph3.1 mph4.7 mph6 mph5.4 mph4.6 mph
Wind
Direction
73°
ENE
57°
ENE
41°
NE
35°
NE
28°
NNE
30°
NNE
29°
NNE
32°
NNE
27°
NNE
30°
NNE
25°
NNE
29°
NNE
32°
NNE
31°
NNE
35°
NE
39°
NE
35°
NE
36°
NE
36°
NE
47°
NE
49°
NE
60°
ENE
63°
ENE
59°
ENE
49°
NE
49°
NE
59°
ENE
65°
ENE
59°
ENE
47°
NE
50°
NE
32°
NNE
16°
NNE
31°
NNE
39°
NE
36°
NE
42°
NE
42°
NE
38°
NE
36°
NE
54°
NE
67°
ENE
91°
E
124°
SE
145°
SE
164°
SSE
184°
S
179°
S

Daily Forecast

Date High Low Precip. Humidity
Today
Feb 29

Clouds
62 °F
50 °F
18%
51%
Friday
Mar 1

Rain
63 °F
52 °F
100%
90%
Saturday
Mar 2

Clouds
76 °F
57 °F
5%
70%
Sunday
Mar 3

Clouds
76 °F
61 °F
0%
67%
Monday
Mar 4

Rain
78 °F
65 °F
100%
70%
Tuesday
Mar 5

Rain
77 °F
67 °F
100%
84%
Wednesday
Mar 6

Rain
70 °F
62 °F
53%
83%
Thursday
Mar 7

Rain
68 °F
60 °F
99%
95%
Friday
Mar 8

Rain
76 °F
63 °F
99%
61%
Saturday
Mar 9

Clouds
69 °F
49 °F
0%
46%
Sunday
Mar 10

Clouds
73 °F
55 °F
0%
46%
Monday
Mar 11

Rain
71 °F
55 °F
41%
45%
Tuesday
Mar 12

Rain
64 °F
59 °F
100%
91%
Wednesday
Mar 13

Rain
72 °F
61 °F
96%
75%
Thursday
Mar 14

Rain
71 °F
64 °F
85%
78%
Friday
Mar 15

Rain
77 °F
64 °F
93%
68%

Temperature 8-14 Day Outlook



Precipitation 8-14 Day Outlook




Quick Links
Calcasieu Lake News
Calcasieu Lake Photos
Calcasieu Lake Videos




About Us
Contact Us
Site Map
Search Site
Advertise With Us
   
Calcasieu.USLakes.info
THE CALCASIEU LAKE WEBSITE

Copyright 2024, Lakes Online
Privacy    |    Legal